Location: Krasnoyarskiy Pitomnik
(51.1333°N, 71.6167°E)
Time: 22:41:51
(UTC+00:00)

A-11 Canister half - Pass Details

Date: 25 April 2024
Orbit: 1525 x 1683 km, 47.3° (Epoch: 19 May)

Event Time Altitude Azimuth Distance (km) Brightness Sun altitude
Rises 07:05:53 0° 288° (WNW) 4,941 11.5 52.2°
Reaches altitude 10° 07:09:57 10° 275° (W) 3,949 11.2 52.2°
Maximum altitude 07:17:06 22° 229° (SW) 3,054 11.3 52.2°
Drops below altitude 10° 07:24:11 10° 183° (S) 3,895 12.0 52.2°
Sets 07:28:12 0° 170° (S) 4,857 12.2 52.1°
